Weather History for Wright-Patt AFB, OH

Change the Weather History Date:

Saturday, September 21, 2013

  Actual Average Record
Temperature  
Mean Temperature 64 °F -  
Max Temperature 73 °F 72 °F 92 °F (2010)
Min Temperature 56 °F 49 °F 41 °F (1999)
Growing Degree Days 14 (Base 50)    
Moisture  
Dew Point 57 °F    
Average Humidity 77    
Maximum Humidity 100    
Minimum Humidity 49    
Precipitation  
Precipitation 0.74 in - - ()
Sea Level Pressure  
Sea Level Pressure 29.79 in    
Wind  
Wind Speed 7 mph (NW)    
Max Wind Speed 15 mph    
Max Gust Speed 22 mph    
Visibility 9 miles    
Events Rain    
Averages and records for this station are not official NWS values.
T = Trace of Precipitation, MM = Missing Value Source: NWS Daily Summary

Daily Weather History Graph

Daily Weather History Graph

Search for Another Location

Airport:

Trip Planner

Search our weather history database for the weather conditions in past years. The results will help you decide how hot, cold, wet, or windy it might be!

Date:

Astronomy

Sep. 21, 2013 Rise Set
Actual Time 7:23 AM EDT 7:34 PM EDT
Civil Twilight 6:56 AM EDT 8:01 PM EDT
Nautical Twilight 6:24 AM EDT 8:32 PM EDT
Astronomical Twilight 5:52 AM EDT 9:05 PM EDT
Moon 8:45 PM EDT 9:40 AM EDT
Length of Visible Light 13h 05m
Length of Day
12h 11m
Waning Gibbous, 94% of the Moon is Illuminated
Sep 21
Waning Gibbous
Sep 26
Last Quarter
Oct 4
New
Oct 11
First Quarter
Oct 18
Full

Hourly Weather History & Observations

Time (EDT) Temp. Dew Point Humidity Pressure Visibility Wind Dir Wind Speed Gust Speed Precip Events Conditions
12:58 AM 68.7 °F 68.2 °F 98% 29.78 in 5.0 mi SSW 4.6 mph - 0.16 in Rain Light Rain
1:10 AM 68.0 °F 68.0 °F 100% 29.79 in 4.0 mi SW 4.6 mph - N/A Rain Light Rain
1:58 AM 66.2 °F 66.2 °F 100% 29.77 in 4.0 mi West 4.6 mph - 0.20 in Rain Rain
2:08 AM 66.2 °F 66.2 °F 100% 29.78 in 6.0 mi West 2.3 mph - N/A Rain Light Rain
2:55 AM 66.7 °F 65.7 °F 96% 29.76 in 8.0 mi West 4.6 mph - 0.11 in Rain Light Rain
3:55 AM 66.6 °F 65.7 °F 97% 29.75 in 8.0 mi West 4.6 mph - 0.04 in Rain Light Rain
4:58 AM 66.2 °F 66.2 °F 100% 29.74 in 5.0 mi West 6.9 mph - 0.07 in Rain Rain
5:58 AM 65.5 °F 64.4 °F 96% 29.74 in 8.0 mi West 3.5 mph - 0.08 in Rain Light Rain
6:58 AM 64.8 °F 63.9 °F 97% 29.71 in 8.0 mi ENE 3.5 mph - 0.06 in Rain Light Rain
7:58 AM 62.6 °F 59.0 °F 88% 29.74 in 10.0 mi NNW 13.8 mph 20.7 mph 0.02 in   Overcast
8:58 AM 61.3 °F 58.3 °F 90% 29.75 in 10.0 mi NW 11.5 mph - N/A   Overcast
9:58 AM 60.8 °F 57.9 °F 90% 29.77 in 10.0 mi WNW 8.1 mph - N/A   Mostly Cloudy
10:47 AM 60.8 °F 57.2 °F 88% 29.77 in 10.0 mi NW 11.5 mph - N/A   Mostly Cloudy
10:58 AM 62.6 °F 57.2 °F 82% 29.78 in 10.0 mi NW 12.7 mph - N/A   Mostly Cloudy
11:34 AM 62.6 °F 57.2 °F 82% 29.78 in 10.0 mi NW 11.5 mph - N/A   Mostly Cloudy
11:49 AM 64.4 °F 57.2 °F 77% 29.79 in 10.0 mi NNW 11.5 mph - N/A   Mostly Cloudy
11:58 AM 64.6 °F 57.0 °F 76% 29.79 in 10.0 mi NNW 12.7 mph - N/A   Mostly Cloudy
12:08 PM 64.4 °F 57.2 °F 77% 29.79 in 10.0 mi NW 11.5 mph - N/A   Mostly Cloudy
12:18 PM 64.4 °F 57.2 °F 77% 29.79 in 10.0 mi NW 11.5 mph - N/A   Mostly Cloudy
12:38 PM 66.2 °F 57.2 °F 73% 29.79 in 10.0 mi NNW 8.1 mph - N/A   Scattered Clouds
12:48 PM 66.2 °F 57.2 °F 73% 29.79 in 10.0 mi NNW 12.7 mph - N/A   Mostly Cloudy
12:58 PM 67.3 °F 57.0 °F 70% 29.79 in 10.0 mi NNW 12.7 mph - N/A   Mostly Cloudy
1:58 PM 70.5 °F 54.1 °F 56% 29.78 in 10.0 mi NNW 10.4 mph - N/A   Scattered Clouds
2:58 PM 70.2 °F 51.4 °F 51% 29.78 in 10.0 mi WNW 10.4 mph - N/A   Partly Cloudy
3:58 PM 70.9 °F 51.1 °F 49% 29.78 in 10.0 mi NW 15.0 mph 18.4 mph N/A   Scattered Clouds
4:58 PM 70.7 °F 51.1 °F 50% 29.79 in 10.0 mi NW 13.8 mph 21.9 mph N/A   Partly Cloudy
5:58 PM 70.2 °F 50.9 °F 50% 29.79 in 10.0 mi NW 11.5 mph - N/A   Clear
6:58 PM 68.5 °F 48.9 °F 49% 29.81 in 10.0 mi WNW 8.1 mph - N/A   Clear
7:58 PM 64.6 °F 49.3 °F 58% 29.82 in 10.0 mi WNW 5.8 mph - N/A   Clear
8:58 PM 62.4 °F 49.3 °F 62% 29.84 in 10.0 mi NW 4.6 mph - N/A   Clear
9:58 PM 61.7 °F 48.0 °F 61% 29.86 in 10.0 mi NNW 12.7 mph - N/A   Clear
10:58 PM 59.0 °F 48.6 °F 68% 29.89 in 10.0 mi NNW 5.8 mph - N/A   Clear
11:58 PM 56.8 °F 48.4 °F 73% 29.90 in 10.0 mi NW 5.8 mph - N/A   Clear